SCP
1 1 1 1 0 0 1 1 1 1 1 1 1 1 1 1 1 1 1 1 1 1 1 1 1 1 1 1 2 1 1 1 1 1 1 1 1 1 1 1 1 1 1
1 1 1 1 1 0 1 1 1 1 1 1 1 1 1 1 1 1 1 1 1 1 1 1 1 1 1 1 1 1 1 1 1 1 1 1 1 1 1 1 1 1 1
0 1 1 1 1 0 1 1 1 1 1 1 1 1 1 1 1 1 1 1 1 1 1 1 1 1 1 1 1 1 1 1 1 1 1 1 1 1 1 1 1 1 1
0 1 1 1 1 1 1 1 1 1 1 1 1 1 1 1 1 1 1 1 1 1 1 1 1 1 1 1 1 1 1 1 1 1 1 1 1 1 1 1 1 1 1
1 1 1 1 1 1 1 1 1 1 1 1 1 1 0 1 1 1 1 1 1 1 1 1 1 1 1 1 1 1 1 1 1 1 1 1 1 1 1 1 1 1 1
1 1 1 2 2 2 2 1 1 1 1 1 1 1 0 1 1 1 1 1 1 1 1 1 1 1 1 1 1 1 1 1 1 1 1 1 1 1 2 2 1 2 2
0 1 1 2 3 3 2 1 1 1 1 1 1 1 1 1 1 1 1 1 1 1 1 1 0 0 1 1 1 1 1 1 1 1 1 1 1 1 2 2 2 2 2
0 0 1 1 2 2 1 1 1 1 1 1 1 1 1 1 1 1 1 1 1 1 1 1 0 0 1 1 1 1 1 1 1 1 1 1 1 2 2 3 3 3 3
0 0 0 1 1 1 1 1 1 1 1 1 1 1 1 1 1 1 1 1 1 1 1 1 0 0 1 1 1 1 1 1 1 1 1 1 1 2 3 3 3 3 3
0 0 0 0 1 1 1 1 1 1 1 1 1 1 1 1 1 1 1 1 1 1 1 1 1 0 1 1 1 1 1 1 2 2 2 1 2 2 3 4 4 4 4
1 1 0 1 1 1 0 0 1 1 1 1 1 1 1 1 1 1 1 1 1 1 1 1 1 1 1 1 1 1 1 2 2 2 2 2 2 3 4 4 4 4 4
1 1 1 1 1 1 1 1 1 1 1 1 1 1 1 0 0 0 1 1 1 1 1 1 1 1 1 1 1 1 2 2 2 2 2 2 2 3 3 4 4 4 4
1 1 1 1 1 1 1 1 1 1 1 1 1 1 1 0 0 0 1 1 1 1 1 1 1 1 1 1 1 1 2 3 3 2 2 2 2 3 3 3 3 4 4
1 1 1 1 1 1 1 1 1 1 1 1 1 1 1 1 1 1 1 1 1 1 1 1 1 1 1 1 1 1 2 3 3 3 2 2 2 2 2 2 2 3 3
1 1 1 2 2 2 2 1 1 1 1 1 1 1 1 1 1 1 1 1 1 1 1 1 1 1 1 1 1 1 1 2 2 2 2 2 2 2 2 1 1 2 2
1 1 1 1 2 2 2 2 1 1 1 1 1 1 1 1 1 1 0 1 1 1 1 1 1 1 1 1 1 1 1 2 2 2 2 2 2 2 2 1 1 1 1
1 1 1 1 2 2 2 2 1 1 1 1 1 1 1 1 1 1 1 1 1 1 1 1 1 1 1 1 2 2 2 2 2 2 2 2 2 2 2 1 1 1 1
2 2 2 2 2 2 2 1 1 1 1 1 1 1 1 1 1 1 1 1 1 2 2 1 1 1 2 2 2 3 3 3 2 2 2 2 2 2 2 1 1 1 1
3 3 2 2 2 2 1 1 1 1 1 1 1 1 1 1 1 1 1 1 2 2 1 1 1 2 2 2 2 3 3 3 3 2 2 2 3 2 2 1 1 1 1
3 2 2 2 2 2 1 1 1 1 1 1 1 1 1 1 1 1 1 2 2 1 1 1 1 2 2 2 2 2 3 3 3 3 3 3 3 3 3 2 2 1 1
2 2 2 2 2 2 1 1 1 1 1 1 1 1 1 1 1 1 1 1 1 1 1 1 1 2 2 2 2 2 3 3 2 2 3 3 4 4 4 3 2 2 2
2 2 2 2 2 2 1 1 1 2 1 1 1 1 1 1 1 1 1 1 1 1 1 1 1 1 2 1 2 2 3 3 2 2 3 3 4 5 4 4 3 2 2
3 3 3 3 2 2 2 1 1 2 2 2 2 2 2 1 1 1 1 1 1 1 1 1 1 1 1 1 2 2 2 2 2 3 3 4 4 5 5 4 3 2 2
3 3 3 4 3 3 3 2 2 2 2 2 2 2 2 2 1 1 1 1 1 1 1 1 1 1 1 1 2 2 2 2 3 3 3 3 4 5 5 4 3 2 2
3 3 4 5 5 4 3 3 2 2 3 3 3 2 2 2 2 2 1 1 1 1 1 1 1 1 1 1 1 1 1 2 2 2 2 2 3 4 6 5 4 2 2
4 4 4 5 5 5 4 3 3 3 3 3 3 2 2 2 2 2 2 2 1 1 1 1 1 1 1 1 1 1 1 1 2 1 1 1 2 3 5 6 5 3 2
Wind_Speed
9 9 11 11 11 12 12 12 11 11 11 12 12 12 12 13 13 13 13 13 12 12 11 11 11 10 10 11 12 12 11 10 10 11 11 11 11 10 9 9 9 9 11
10 10 11 10 11 12 11 12 11 11 11 12 12 12 13 13 12 12 12 12 12 11 11 11 10 10 10 10 11 10 9 9 9 10 10 9 10 9 8 7 9 8 11
11 10 10 10 10 11 11 11 11 11 11 11 12 12 12 13 12 12 12 12 11 11 11 10 10 10 10 10 10 9 8 8 8 8 8 6 7 9 9 9 11 11 10
10 9 9 10 10 10 11 11 11 11 11 11 11 12 12 12 12 12 12 11 11 11 10 10 10 10 9 9 8 7 6 6 6 6 4 5 6 9 9 9 10 10 10
10 9 9 10 10 11 11 11 10 10 11 11 11 11 11 11 11 11 11 11 11 11 10 10 10 9 9 8 6 5 4 4 5 5 3 5 6 10 10 9 9 9 9
10 9 10 11 12 11 11 11 10 10 10 11 11 11 10 10 11 11 10 10 10 10 10 10 9 8 8 6 5 4 3 3 5 4 4 7 6 9 10 9 9 9 9
10 10 11 12 12 12 12 11 10 10 10 11 11 10 10 10 10 10 10 10 10 10 9 9 8 7 6 5 3 2 2 4 4 2 4 6 7 10 11 10 9 8 8
10 10 10 12 12 12 12 11 10 10 10 10 11 10 10 10 10 10 10 10 10 9 8 7 7 5 4 3 2 1 3 4 3 3 6 7 9 10 10 9 8 8 8
10 10 9 10 10 11 12 11 10 10 10 10 10 10 10 10 10 10 10 9 10 8 7 6 5 4 3 2 2 3 4 5 3 2 6 6 10 11 10 9 8 8 8
8 8 9 9 9 9 10 11 11 11 11 10 10 10 9 9 10 10 9 9 9 8 7 6 4 3 3 3 4 5 6 5 3 2 4 7 11 11 11 9 8 8 7
7 7 7 8 9 9 10 11 10 10 10 9 8 9 8 6 7 7 8 9 8 7 6 5 5 4 4 5 7 8 6 3 1 2 4 10 11 11 10 9 8 8 7
7 7 7 7 8 8 8 7 5 6 6 5 5 6 4 3 4 6 9 9 8 7 6 5 5 5 5 4 6 7 3 3 2 3 5 11 11 11 10 9 8 8 8
6 6 8 8 7 6 5 4 3 3 4 4 5 4 4 3 4 5 4 5 5 6 4 5 5 4 4 2 2 3 2 2 2 4 6 11 11 10 10 9 8 7 7
6 7 7 8 7 5 4 3 3 3 3 3 4 3 3 2 2 2 2 3 3 2 2 2 2 2 2 1 0 0 1 2 2 4 6 11 10 10 9 8 8 7 7
7 7 8 8 6 5 4 2 3 3 3 4 3 3 3 2 2 2 2 1 2 2 2 1 1 1 0 1 2 1 1 2 4 4 5 10 10 9 8 8 8 7 6
7 7 7 8 7 5 4 2 2 2 3 3 3 4 2 2 2 1 1 1 0 1 1 1 1 1 0 1 1 1 2 2 3 4 4 6 9 8 8 7 7 6 6
8 7 6 8 7 6 4 2 2 2 3 3 3 4 2 2 2 1 1 1 0 1 1 1 1 1 1 1 0 1 2 2 2 3 4 4 5 6 7 6 6 5 5
8 7 5 6 8 6 4 2 2 2 2 3 3 3 2 2 1 0 1 1 1 1 1 1 1 0 1 1 1 1 2 2 2 2 3 3 3 3 5 6 5 4 4
8 7 5 6 7 6 5 3 3 2 2 2 3 2 2 2 1 1 1 1 1 0 0 0 1 1 0 0 1 1 1 2 1 2 2 3 3 3 3 5 5 3 3
8 7 6 5 6 5 4 3 2 2 2 2 3 3 2 1 1 1 1 0 0 1 1 1 1 0 0 0 1 2 1 1 1 1 2 3 2 3 3 4 3 3 4
9 8 6 5 5 4 3 3 2 2 2 2 2 3 2 1 2 1 1 1 0 1 1 0 1 1 1 1 1 1 1 2 2 2 2 2 3 3 3 4 3 3 3
9 8 7 6 5 4 3 2 2 2 2 2 2 2 2 1 1 1 1 0 1 1 1 0 0 1 0 1 0 0 0 1 0 2 2 2 2 2 2 4 4 3 2
10 9 8 6 5 4 5 3 2 2 1 2 3 2 1 1 1 1 1 1 1 1 1 1 0 0 1 0 0 0 0 1 0 1 1 2 2 2 2 3 4 3 3
11 10 8 7 6 4 4 3 4 3 2 2 2 2 2 2 2 1 1 1 1 1 1 0 1 1 0 1 0 0 0 1 1 1 1 2 2 2 2 2 3 3 3
11 11 9 8 6 5 4 3 3 2 2 2 2 3 3 2 1 1 1 0 1 1 1 1 2 1 1 1 1 0 0 0 0 1 1 1 1 2 2 2 2 2 3
11 11 10 9 7 6 5 4 3 3 3 3 3 3 3 2 2 2 2 1 1 1 0 0 0 1 1 2 2 1 0 0 0 0 1 1 1 1 2 2 2 2 2
Wind_Direction
91 94 102 99 97 96 97 99 98 98 97 98 100 104 110 113 113 115 116 115 115 115 114 113 112 111 106 102 100 104 107 108 108 112 117 120 121 121 122 126 126 113 112
99 99 99 100 101 99 99 100 97 96 98 97 98 102 111 114 115 116 117 117 116 115 113 111 110 112 111 108 107 109 114 118 121 125 128 126 126 126 124 120 114 115 120
98 100 98 98 101 103 104 103 100 97 98 99 99 100 109 115 115 115 117 116 114 113 112 112 112 114 113 110 110 114 121 130 137 146 146 133 128 126 122 116 119 124 125
101 100 97 103 106 108 109 107 104 102 100 102 103 102 104 110 115 115 116 115 114 113 112 111 112 115 114 113 115 123 133 147 158 174 176 142 131 130 129 126 130 132 134
91 96 105 110 111 114 114 112 108 105 103 103 104 104 106 108 108 110 114 113 112 112 111 110 111 116 117 116 120 133 151 173 194 203 163 121 120 137 137 138 140 143 145
101 101 108 114 115 116 115 114 112 109 108 108 108 109 110 110 110 110 115 114 112 112 110 110 111 114 117 118 124 143 179 218 236 205 147 130 134 144 144 147 148 151 149
100 102 107 111 114 116 117 117 116 116 114 115 113 113 114 114 111 109 116 118 116 113 114 114 113 114 116 120 133 167 220 243 232 185 133 131 141 148 149 151 154 154 153
100 99 108 113 116 117 119 121 119 120 120 121 119 119 118 117 116 116 117 124 122 120 120 119 117 118 122 130 158 228 254 261 230 145 126 129 145 151 151 154 160 159 159
106 113 120 120 120 121 123 125 126 126 126 126 127 125 122 123 125 125 122 126 130 130 130 130 131 133 141 170 225 250 259 263 268 157 136 134 145 148 151 155 157 161 165
109 115 120 125 132 133 128 130 133 131 132 133 133 134 134 134 135 135 133 130 137 140 144 149 154 163 185 220 243 254 260 267 255 150 127 139 147 149 151 151 153 159 165
102 108 114 120 129 129 129 133 139 138 137 140 141 145 148 148 145 147 133 137 142 147 154 162 175 194 213 230 243 250 258 245 192 119 122 142 150 151 152 154 159 163 169
106 111 109 109 115 119 117 129 143 142 139 145 138 148 155 145 126 122 132 145 152 160 167 179 197 211 229 235 232 237 237 206 138 122 132 145 151 156 160 164 167 170 176
121 113 115 109 106 107 109 128 125 127 130 139 132 134 128 123 121 126 144 145 161 174 186 184 201 221 227 236 240 217 213 177 126 126 141 151 156 158 160 166 170 177 182
111 109 111 109 102 95 102 112 122 121 131 123 127 120 116 111 114 120 133 145 170 176 169 181 204 213 245 263 274 211 130 127 114 118 144 152 155 158 162 167 171 179 188
112 109 102 106 103 98 85 76 100 104 110 115 111 91 94 104 105 115 110 131 165 154 163 201 217 154 36 15 3 21 45 88 110 117 132 150 155 161 165 171 178 186 194
119 113 113 116 114 110 105 88 85 100 96 102 103 95 86 90 89 92 107 93 115 128 145 190 176 144 107 46 356 357 49 70 101 123 135 151 160 165 169 174 180 189 200
125 118 121 123 120 120 119 128 103 85 103 104 100 101 92 92 103 124 112 128 165 184 175 180 181 174 178 179 144 77 77 71 79 120 134 145 156 166 169 172 175 188 202
122 119 125 122 121 121 117 104 91 86 98 106 112 109 107 102 106 96 104 144 155 192 176 170 186 194 129 132 122 99 103 107 117 114 121 134 138 140 159 165 165 181 201
122 123 120 109 122 128 125 123 111 105 98 98 104 108 111 128 141 123 90 74 210 160 183 179 112 71 64 56 139 137 121 112 121 109 105 109 114 126 133 154 160 161 169
130 127 124 118 118 129 130 134 126 115 111 105 105 112 127 142 106 38 126 243 306 89 60 44 81 138 166 98 40 83 92 113 104 106 122 111 113 125 125 129 148 139 114
137 137 137 133 126 134 140 147 150 144 145 131 130 130 135 127 111 42 53 114 51 95 91 90 75 196 157 114 56 62 79 101 108 92 79 98 108 109 111 118 117 113 124
147 146 142 140 145 154 139 142 158 142 150 136 111 118 121 110 98 143 55 155 87 112 92 67 35 329 287 131 130 280 168 98 27 113 120 125 111 113 113 114 109 112 113
156 157 157 154 155 159 149 158 158 141 138 124 132 139 134 125 114 51 73 358 34 136 135 179 14 316 308 259 139 281 306 104 144 110 126 109 104 101 104 113 117 112 111
163 160 151 154 155 155 162 169 164 153 150 146 144 139 146 137 133 127 112 54 7 61 68 246 90 336 298 297 168 235 14 104 169 142 123 122 134 133 122 115 114 114 106
165 160 156 156 158 161 168 173 169 159 153 142 134 136 144 144 151 135 116 126 81 78 57 40 63 19 16 354 336 143 20 154 216 141 147 154 140 141 143 140 130 130 129
163 159 161 159 162 165 173 174 173 172 160 147 150 156 170 156 159 156 142 131 109 119 127 111 80 112 30 11 350 345 9 77 145 136 145 169 156 159 149 142 148 142 144